CAPE
0 0 0 0 0 0 0 0 0 0 0 0 0 12 125 252 505 473 1376 1496 1735 2036 2277 2011 1869 2438 2838 2746 2812 2842 2939 2614 1961 1469 1339 936 980 1871 2430 2534 2656 2600 2532 2902
0 0 0 0 0 0 0 0 0 0 0 0 0 0 0 270 493 687 1094 1385 1639 1860 2076 1884 1923 1960 2218 2225 2241 2491 2906 3033 3204 2215 1593 2085 2922 3537 3529 3178 1943 1600 1162 1086
0 0 0 0 0 0 0 0 0 0 0 0 0 0 62 246 331 917 1101 1303 1462 1718 1495 1934 1871 1916 1747 1918 2403 2667 3232 3849 3811 3324 3411 3456 2680 1528 1552 946 221 5 0 0
0 1 2 58 0 0 0 0 0 0 0 0 0 0 58 176 353 738 1078 1414 1385 1238 1689 1722 1722 1386 1523 1722 2491 2501 2726 3770 3482 3264 3664 1052 545 293 83 52 3 0 0 0
1 6 0 7 0 0 0 0 0 0 0 0 0 0 36 322 437 695 858 933 1024 1242 1461 1580 1785 1636 1752 1860 1802 2208 1967 2480 3423 3570 2956 1648 873 830 504 45 0 0 0 0
1 0 0 7 0 0 0 0 0 0 0 0 0 0 153 219 277 331 311 283 438 747 956 1100 1198 1397 1733 1774 1580 1683 1723 1835 1976 2174 2161 2080 2127 2025 2140 760 280 279 330 446
0 0 3 7 0 0 0 0 3 7 0 0 0 187 266 142 139 92 80 45 61 163 309 307 343 459 1248 1608 1882 1902 2025 2167 1981 2041 1821 1737 1613 1435 1211 1368 1333 1483 1383 830
0 0 0 2 0 0 0 17 20 14 28 29 159 77 56 57 18 0 0 0 0 0 4 2 27 93 274 395 605 879 1119 1574 1848 1709 1723 980 1234 1233 1373 1312 1425 1215 914 1014
0 1 86 4 0 31 8 0 26 10 11 42 12 1 0 0 0 0 0 0 0 0 0 0 0 0 10 33 150 284 356 532 786 1450 1694 1781 1552 1899 1568 1512 1037 621 501 563
0 0 0 0 0 0 0 0 65 24 5 0 0 0 0 0 0 0 0 0 0 0 0 0 0 0 0 2 21 67 157 252 377 490 734 1944 1652 1129 948 802 638 597 544 329
0 0 0 0 0 0 0 0 0 0 0 0 0 0 0 0 0 0 0 0 0 0 0 0 0 0 0 0 2 36 77 95 133 81 133 152 533 1144 1324 1014 833 664 517 318
0 0 0 0 0 0 0 0 0 0 0 0 0 0 0 0 0 0 0 0 0 0 0 0 0 0 0 0 0 0 28 22 15 0 0 0 0 138 458 624 705 425 188 165
0 0 0 0 0 0 0 0 0 0 0 0 0 0 0 0 0 0 0 0 0 0 0 0 0 0 0 0 0 6 36 139 123 26 10 5 0 0 0 1 313 411 306 216
0 0 0 0 0 0 0 0 0 0 0 0 0 0 0 0 0 0 0 0 0 0 0 0 0 1 0 0 2 5 12 43 148 179 110 67 24 12 4 0 0 0 159 367
0 0 0 0 0 0 0 0 0 0 0 0 2 4 0 0 0 0 0 0 0 0 3 6 9 13 19 19 18 8 3 6 124 316 399 361 258 210 155 125 90 25 8 34
0 0 0 0 0 0 0 1 4 9 9 1 0 0 0 0 0 0 0 0 2 4 10 18 33 26 36 44 33 18 18 13 25 186 323 400 355 277 255 288 258 168 96 97
0 1 6 6 10 10 29 4 0 0 0 0 0 0 0 0 0 3 7 7 3 5 9 11 12 30 56 23 31 33 24 15 20 102 352 235 202 183 207 152 99 170 105 84
28 105 64 19 4 0 0 0 0 0 0 0 0 0 1 5 6 7 11 9 6 3 5 12 17 23 31 21 15 30 24 19 39 46 230 266 294 293 220 171 109 109 121 84
230 57 0 0 0 0 0 0 0 0 0 0 5 4 6 6 13 11 6 10 10 11 5 28 17 15 19 32 26 20 13 15 22 63 76 86 169 162 196 250 212 229 257 305
6 0 0 0 0 0 0 0 0 0 3 7 9 7 4 8 8 9 6 4 2 7 16 31 50 34 29 14 3 6 6 4 5 12 29 23 28 33 133 118 92 147 461 350
0 0 0 0 0 0 0 0 0 0 0 6 13 4 12 28 17 29 38 35 41 17 45 0 12 14 0 0 3 3 4 5 5 9 8 9 8 10 14 50 38 61 204 145
4 0 0 0 0 0 0 0 0 2 5 13 26 17 28 37 33 30 14 35 143 0 0 0 1 0 1 6 5 5 4 4 4 5 11 15 13 8 2 11 26 21 93 88
0 0 0 0 1 1 2 3 10 28 25 36 40 28 40 38 5 26 120 197 1 0 0 0 0 0 1 0 2 2 3 3 3 3 3 5 6 7 3 7 17 41 5 3
0 0 2 0 0 9 10 12 15 33 27 9 21 56 96 73 17 238 337 4 0 0 0 0 0 0 2 3 2 3 3 5 2 2 4 2 3 3 0 13 24 3 0 10
7 7 0 1 9 4 11 14 16 7 1 1 11 124 249 255 263 424 119 0 1 0 0 0 0 1 8 3 2 3 4 3 0 0 2 1 1 7 1 5 7 7 9 9
3 0 1 2 16 14 7 6 12 12 15 4 6 5 152 348 313 11 0 0 1 0 0 0 0 0 4 3 2 2 3 5 6 4 3 4 5 6 7 9 8 9 7 4
0 0 4 4 15 18 30 12 7 32 6 5 7 7 7 58 7 0 0 1 3 0 0 0 0 0 2 2 2 2 2 2 1 5 6 7 7 7 7 5 4 3 3 2
CIN
0 0 0 0 0 0 0 0 0 0 0 0 0 -118 -56 -32 -39 -24 -26 -51 -71 -68 -102 -138 -155 -131 -98 -54 -60 -51 -35 -40 -62 -82 -66 -88 -46 -1 -1 -1 -1 -1 -3 -1
0 0 0 0 0 0 0 0 0 0 0 0 0 0 0 -43 -39 -34 -40 -52 -64 -78 -84 -105 -116 -113 -101 -94 -98 -84 -62 -56 -8 -62 -114 -30 0 -3 -2 -6 -101 -130 -162 -105
0 0 0 0 0 0 0 0 0 0 0 0 0 0 -122 -95 -43 -71 -41 -57 -53 -48 -89 -73 -97 -97 -98 -86 -57 -41 -26 -9 -21 -34 -10 -1 -59 -140 -143 -224 -345 -314 0 0
0 -8 -23 -64 0 0 0 0 0 0 0 0 0 0 -181 -126 -62 -60 -58 -46 -45 -31 -32 -52 -69 -85 -93 -77 -50 -44 -24 -1 -41 -51 -2 -230 -301 -296 -392 -455 -123 0 0 0
-12 -73 0 -74 0 0 0 0 0 0 0 0 0 0 -69 -118 -65 -78 -83 -79 -75 -42 -67 -77 -47 -62 -80 -71 -55 -56 -78 -21 -2 -1 -23 -127 -179 -184 -295 -372 -20 0 0 0
-72 0 -10 -53 0 0 0 0 0 0 0 0 0 0 -29 -120 -102 -105 -137 -172 -144 -110 -99 -112 -109 -69 -61 -52 -40 -68 -48 -57 -73 -56 -50 -48 -44 -54 -51 -190 -240 -236 -262 -158
0 0 -37 -84 0 0 0 0 -96 -237 -109 0 0 -56 -72 -88 -107 -131 -154 -184 -195 -169 -148 -176 -199 -155 -96 -60 -16 -10 -16 -55 -62 -56 -82 -68 -67 -85 -112 -93 -64 -48 -42 -72
0 0 0 -14 0 0 0 -281 -271 -286 -251 -213 -97 -91 -95 -113 -98 0 0 0 0 0 -86 -98 -264 -233 -177 -144 -134 -125 -107 -73 -58 -72 -66 -69 -87 -86 -94 -105 -73 -71 -84 -67
0 -27 -197 -35 0 -281 -87 0 -286 -271 -279 -186 -167 -90 -16 0 0 0 0 0 0 0 0 0 0 0 -304 -258 -224 -207 -198 -166 -116 -50 -41 -45 -53 -40 -60 -63 -82 -75 -47 -29
0 0 0 0 0 0 0 0 -258 -244 -239 0 0 0 0 0 0 0 0 0 0 0 0 0 0 0 0 -64 -264 -221 -207 -196 -169 -154 -110 -17 -22 -31 -42 -36 -23 -21 -27 -41
0 0 0 0 0 0 0 0 0 0 0 0 0 0 0 0 0 0 0 0 0 0 0 0 0 0 0 0 -79 -208 -169 -166 -170 -202 -150 -135 -88 -23 -3 -6 -11 -8 -5 -6
0 0 0 0 0 0 0 0 0 0 0 0 0 0 0 0 0 0 0 0 0 0 0 0 0 0 0 0 0 0 -132 -117 -48 -9 0 0 0 -67 -46 -44 -36 -52 -120 -105
0 0 0 0 0 0 0 0 0 0 0 0 0 0 0 0 0 0 0 0 0 0 0 0 0 0 0 0 0 -1 -120 -56 -66 -126 -3 -1 0 0 0 -1 -53 -37 -43 -96
0 0 0 0 0 0 0 0 0 0 0 0 0 0 0 0 0 0 0 0 0 0 0 0 0 -1 0 0 -2 -1 -2 -123 -48 -56 -88 -82 -15 -16 -15 0 0 0 -72 -82
0 0 0 0 0 0 0 0 0 0 0 0 -2 -2 -1 0 0 0 0 0 0 0 -1 -1 -1 -1 -2 -2 -2 -1 -2 -33 -97 -31 -20 -10 -10 -12 -19 -22 -46 -72 -46 -42
0 0 0 0 0 0 0 -3 -1 -2 -1 -1 0 0 0 0 0 0 0 -1 -1 -1 -1 -1 -1 -2 -2 -2 -2 -2 -259 -338 -292 -97 -30 -7 -4 -5 -2 -2 -4 -11 -30 -53
0 -1 -1 -3 -2 -2 -1 -2 0 0 0 0 0 0 0 0 0 -1 -2 -3 -11 -13 -12 -14 -14 -4 -1 -3 -2 -3 -2 -3 -261 -111 -2 -5 -4 -1 -2 -2 -8 0 -7 -41
-5 -7 -11 -4 -8 0 0 0 0 0 0 0 0 0 -1 0 -1 -2 -1 -1 -1 -13 -8 -1 -3 -6 -2 -4 -2 -132 -106 -80 -43 -25 -2 -1 -1 -2 -2 -1 -3 -1 -3 -13
-1 -15 0 0 0 0 0 0 0 0 0 0 -2 -1 -1 -2 -1 -2 -5 -1 -1 -2 -4 -8 -22 -19 -89 -162 -4 -3 -2 -1 -1 -1 -1 0 0 -1 -1 -3 -2 -8 -3 -9
-4 0 0 0 0 0 0 0 0 -1 -1 -2 -5 -5 -2 -1 -1 -1 -2 -3 -8 -2 -4 -4 -1 -12 -12 -1 -2 -1 -1 0 0 0 0 0 0 0 0 -1 -5 0 -1 -6
0 0 0 0 0 0 0 0 0 0 0 -3 -2 -4 -1 0 -4 -1 -1 -1 -2 -14 -1 -1 -2 -1 0 0 0 0 0 0 0 0 0 0 0 0 -7 -2 -16 -2 -8 -22
-2 0 0 0 0 0 0 0 0 -2 -2 -3 -2 -3 -1 -1 -1 -2 -5 -1 -1 0 0 -3 -2 0 0 0 0 0 0 0 0 0 0 0 0 0 0 -4 -6 -39 -18 -5
0 0 0 0 -1 -1 -1 -2 -2 -2 -3 -2 -2 -1 -1 -3 -1 -2 -1 -1 -1 0 0 0 0 0 0 0 0 0 0 0 0 0 0 0 0 0 0 -12 -12 -6 -7 -29
0 0 -1 -1 -1 -2 -1 -4 -6 -2 -1 -1 -1 -2 -2 -2 -10 -3 -2 -1 0 0 0 0 0 0 0 0 0 0 0 0 0 0 0 0 0 0 0 -2 -3 0 0 0
-1 -1 0 -1 -1 -5 -2 -1 -1 -1 -3 -1 -4 -2 -1 -2 -2 -2 -19 0 -34 0 0 0 0 0 0 0 0 0 0 0 0 0 0 0 0 0 0 0 0 0 0 0
-1 0 -1 -2 -1 -2 -2 -1 0 -1 -1 0 -1 -1 -6 -1 -3 -24 0 0 -30 0 0 0 0 0 0 0 0 0 0 0 0 0 0 0 0 0 0 0 0 0 0 0
0 0 -2 -1 -4 -6 -3 -4 -3 -1 -1 -1 -1 -3 -9 -9 -4 0 0 -8 -23 0 0 0 0 0 0 0 0 0 0 0 0 0 0 0 0 0 0 0 0 0 0 0
Wind_Speed
21 14 13 11 10 8 8 17 18 22 18 17 16 18 18 19 19 14 14 16 14 14 13 12 12 12 12 13 14 16 16 13 10 7 4 1 2 17 26 30 30 33 35 35
16 14 16 17 13 14 13 18 17 18 18 15 15 15 16 19 19 17 17 17 16 16 14 13 12 12 12 14 16 17 17 15 13 6 5 9 12 11 16 21 23 25 27 31
19 16 16 15 16 16 20 16 16 13 16 18 17 20 21 19 17 17 18 19 18 17 16 14 13 13 13 14 16 17 18 19 14 8 7 9 15 17 15 17 20 22 26 29
21 20 16 22 24 21 24 19 18 16 15 16 17 17 14 17 17 17 17 18 19 19 18 15 13 12 14 14 16 17 17 18 15 11 9 13 14 17 19 15 18 24 27 30
25 23 24 22 19 20 20 22 17 17 17 14 15 15 12 14 15 16 16 17 19 20 18 18 18 16 17 19 19 16 18 16 15 13 15 14 17 19 20 18 17 16 18 23
24 27 29 28 21 21 21 27 21 17 16 17 15 15 11 12 14 16 16 17 18 18 18 19 21 19 19 19 17 19 20 19 18 18 17 18 16 17 15 16 19 24 19 10
27 30 28 25 19 18 24 31 24 23 17 16 15 16 12 12 14 16 17 17 19 19 19 21 22 23 23 24 23 23 25 26 25 21 20 21 20 20 20 19 18 17 19 21
27 30 32 20 19 24 25 23 21 20 17 15 14 14 14 15 16 17 19 19 21 21 22 24 24 25 25 26 26 27 28 28 28 28 25 24 22 23 24 26 24 24 23 24
26 25 20 20 23 22 23 22 20 18 15 14 14 14 16 17 18 20 22 23 24 26 27 27 27 28 29 30 30 31 33 32 32 31 30 28 29 28 26 26 29 29 26 23
29 28 30 24 23 23 21 21 17 16 15 14 16 17 19 20 23 25 27 28 30 32 33 33 31 32 32 33 33 34 35 36 36 35 35 33 31 30 31 29 28 29 31 31
30 30 26 26 23 21 19 18 16 15 15 17 19 21 24 25 28 30 32 34 34 35 36 37 37 35 35 34 35 36 36 36 36 37 37 37 37 37 36 33 31 29 29 31
33 26 28 24 23 20 21 19 17 17 18 19 22 24 26 28 30 31 33 34 35 36 36 37 37 37 36 36 35 36 37 36 36 37 38 37 37 37 35 36 40 38 38 37
32 27 25 25 26 24 22 18 18 18 21 22 22 24 26 29 31 32 32 33 35 37 37 37 36 37 37 37 37 38 39 38 38 38 38 38 39 41 44 41 33 34 35 36
26 27 27 26 25 21 18 20 18 21 25 23 24 26 29 32 34 34 36 37 37 37 36 35 37 38 37 37 36 36 35 34 34 33 33 36 39 40 41 41 41 41 34 35
23 23 25 23 21 21 21 22 21 21 22 24 26 30 33 35 37 39 38 38 38 36 35 35 35 36 35 37 38 35 35 33 32 33 33 33 34 37 39 40 40 41 39 34
25 22 21 20 19 19 19 20 22 24 27 30 32 33 36 37 39 39 39 39 39 37 38 37 37 36 36 38 40 39 38 34 32 35 37 37 36 36 38 39 40 40 42 41
19 18 18 19 19 20 21 24 26 28 30 32 34 36 38 39 40 40 41 42 43 43 41 39 40 38 40 40 38 36 35 34 33 33 32 34 36 38 40 38 40 43 41 35
18 18 17 19 21 23 25 27 29 31 33 34 36 37 37 38 40 41 41 39 37 34 32 31 31 32 33 34 35 35 36 38 39 40 37 37 37 39 39 42 44 44 41 35
14 15 17 19 22 25 27 30 31 32 33 33 34 35 37 38 37 37 36 35 33 32 30 31 37 39 39 36 34 32 35 37 37 34 35 36 36 39 40 41 44 44 42 36
13 17 20 23 25 27 29 30 31 32 32 33 33 33 36 35 34 34 32 30 27 29 33 35 37 38 38 38 40 40 42 41 39 39 38 39 40 42 41 40 43 42 39 30
17 21 23 25 27 29 30 31 31 33 34 34 32 30 30 32 33 32 32 30 32 33 32 36 38 42 43 45 47 46 43 42 42 40 40 40 41 41 44 41 43 46 40 25
22 24 26 28 31 33 32 32 33 35 33 31 26 27 27 30 29 29 29 31 30 31 34 36 41 49 52 55 49 44 39 34 27 21 20 20 23 26 24 44 38 47 39 27
24 26 29 32 34 35 34 34 33 30 28 28 27 26 25 24 28 27 30 29 28 30 33 38 48 53 54 48 41 36 36 20 21 17 15 14 19 15 22 41 42 38 14 15
26 28 31 32 34 32 32 30 28 26 27 28 24 24 26 21 23 23 26 18 25 28 32 39 50 54 54 41 24 24 26 22 6 3 8 13 22 22 30 35 26 13 9 5
27 30 28 29 30 27 26 28 28 28 26 26 25 25 25 21 20 24 21 24 19 30 33 39 46 54 42 24 22 26 20 22 25 25 26 29 28 24 10 9 8 4 3 3
27 25 27 27 27 26 25 24 27 26 27 28 27 28 24 24 20 19 20 22 27 29 31 31 16 21 32 26 20 20 20 19 15 14 10 7 9 7 5 4 3 2 2 2
24 24 27 29 26 26 23 28 25 23 27 27 26 23 25 24 20 18 18 12 9 23 27 29 14 19 24 26 17 14 16 18 18 13 10 8 7 5 5 5 4 5 7 6
Wind_Direction
278 313 314 329 338 357 7 342 347 333 353 352 358 359 354 357 352 344 336 318 316 313 315 320 327 335 342 351 352 352 354 358 354 349 356 1 192 293 286 276 275 268 263 251
283 300 300 305 320 326 333 330 334 341 344 351 10 8 359 351 347 337 332 324 314 310 310 314 322 331 333 336 339 343 347 347 344 357 354 328 321 320 313 304 301 296 296 291
284 292 299 301 309 314 314 325 331 336 345 354 347 344 342 346 343 336 330 322 320 313 305 307 313 322 330 336 342 346 346 341 344 347 345 337 321 321 320 315 311 312 306 307
283 290 284 299 306 315 312 321 326 325 332 338 344 345 351 351 344 338 334 328 324 320 314 310 311 318 327 334 338 341 347 344 347 348 348 328 331 333 321 328 321 318 310 307
279 283 291 298 312 307 312 314 328 324 326 326 341 345 340 0 356 340 341 337 326 323 324 318 314 311 312 316 322 330 330 338 340 334 327 329 318 323 321 324 330 349 349 324
279 284 286 296 322 321 325 309 324 322 318 327 332 328 343 359 358 351 347 338 331 328 326 323 318 319 316 316 318 320 318 322 322 321 321 319 318 318 321 323 323 318 330 335
278 281 288 297 313 327 310 311 333 335 336 334 334 340 351 355 356 347 345 340 331 328 325 322 318 317 314 312 311 313 314 312 311 313 310 309 309 308 309 312 314 318 318 316
278 282 282 313 314 305 318 328 331 333 335 335 336 334 335 335 335 333 334 330 326 324 321 318 316 314 311 310 309 309 308 307 305 302 302 301 299 300 301 302 304 304 306 308
284 293 306 309 306 317 320 322 325 328 334 337 331 328 327 327 327 325 324 321 319 318 316 315 314 311 308 307 307 305 303 302 301 300 296 293 292 292 292 294 296 298 300 301
286 289 293 301 308 311 316 318 323 327 329 329 323 323 320 321 320 317 316 315 313 311 310 310 311 309 307 306 305 303 300 298 297 296 294 292 288 285 284 286 288 290 292 295
286 291 297 301 305 311 314 316 318 322 323 320 318 316 317 316 313 312 311 310 310 309 307 306 307 308 307 306 305 302 300 298 297 294 292 289 286 283 282 280 281 283 285 288
286 299 296 298 314 308 307 307 311 312 313 314 314 314 315 312 313 313 312 311 310 309 309 309 308 308 308 307 306 303 301 299 297 296 293 291 289 286 280 276 279 280 280 281
292 294 299 302 304 308 307 306 308 310 311 311 314 315 315 314 314 314 314 313 312 311 310 310 310 309 309 308 307 304 301 299 297 295 293 291 289 287 286 286 275 269 272 273
292 297 296 301 303 311 311 310 311 309 309 312 313 314 314 313 312 312 312 311 312 312 311 311 310 309 310 310 308 305 304 301 299 298 295 292 289 287 286 286 284 284 278 272
292 296 299 305 310 309 310 309 309 310 312 313 313 312 312 312 311 310 312 313 313 313 312 312 311 310 310 309 306 305 303 299 297 296 296 296 294 291 286 285 284 285 286 283
291 293 297 301 305 309 311 312 312 312 312 311 311 312 312 311 311 312 313 314 314 314 313 313 311 311 310 308 304 301 300 297 292 292 292 291 292 290 287 284 283 283 283 281
295 295 300 302 305 308 311 313 313 312 312 312 313 312 312 313 313 313 314 314 314 314 315 314 312 312 309 307 305 304 303 300 296 292 290 290 289 287 284 283 282 280 280 282
297 305 309 310 309 310 311 312 312 312 312 312 313 314 315 315 315 316 317 319 320 319 319 318 318 316 315 313 310 308 306 302 298 294 292 288 286 285 283 281 279 278 281 283
305 309 312 313 313 312 312 312 312 314 315 316 317 318 318 319 320 322 323 323 324 323 325 326 320 316 315 316 313 309 305 301 297 292 289 286 283 282 280 279 278 278 278 281
311 312 312 312 314 314 314 315 316 317 319 320 320 322 322 324 328 329 331 329 329 327 327 325 323 322 322 321 317 311 307 303 298 293 288 284 281 279 278 277 276 276 275 275
312 311 312 313 314 315 315 316 318 319 319 322 322 325 327 329 331 333 333 334 333 332 332 328 328 325 325 321 316 312 307 303 299 292 285 281 280 276 273 272 272 266 269 273
312 312 312 312 312 312 317 317 318 318 321 324 326 328 329 331 335 337 337 336 338 339 336 336 333 329 325 319 321 317 313 309 303 289 257 246 271 272 261 262 258 250 256 260
313 313 311 310 311 314 317 319 321 324 326 327 330 331 332 335 335 336 334 338 341 342 341 340 335 332 335 336 333 333 316 262 257 255 247 234 284 275 257 237 230 238 261 249
315 316 317 319 320 323 324 328 331 332 330 331 334 335 333 337 340 342 337 352 349 347 347 346 339 334 340 346 299 294 292 279 289 345 160 162 181 166 224 212 226 228 231 257
322 323 327 330 330 334 335 333 332 332 336 336 336 335 335 341 345 342 341 323 5 344 349 355 349 345 335 316 315 324 320 332 13 69 104 138 168 186 193 192 214 209 211 224
331 335 334 336 336 336 335 338 334 335 335 332 331 332 337 334 342 324 314 289 329 352 5 18 29 15 344 338 333 339 350 4 15 22 43 77 75 89 124 142 153 154 131 135
342 343 339 337 342 340 342 334 336 336 331 330 330 335 329 310 306 305 312 42 60 25 23 31 49 42 357 357 352 352 358 11 21 27 41 62 76 88 95 96 92 85 89 92